Date,TemperatureHighF,TemperatureAvgF,TemperatureLowF,DewpointHighF,DewpointAvgF,DewpointLowF,HumidityHigh,HumidityAvg,HumidityLow,PressureMaxIn,PressureMinIn,WindSpeedMaxMPH,WindSpeedAvgMPH,GustSpeedMaxMPH,PrecipitationSumIn
2013-1-1,52.8,46.1,41.1,38.8,34.1,28.9,82,64,44,30.26,30.19,22,3,28,0.00
2013-1-2,56.2,48.3,41.7,35.9,30.8,27.3,72,51,40,30.23,30.12,16,2,16,0.00
2013-1-3,56.5,46.9,39.3,42.3,36.4,28.8,83,67,52,30.26,30.15,12,1,13,0.00
2013-1-4,57.2,48.7,39.9,38.1,35.6,33.1,85,62,43,30.27,30.16,15,1,17,0.00
2013-1-5,52.9,47.1,42.6,47.4,43.1,37.5,94,86,76,30.25,30.05,13,1,14,0.44
2013-1-6,51.6,46.6,43.6,44.8,43.2,41.7,94,88,75,30.18,30.05,24,2,24,0.45
2013-1-7,59.1,49.1,42.4,48.5,44.6,39.9,94,85,66,30.26,30.14,11,1,11,0.01
2013-1-8,61.9,51.3,43.7,49.5,45.0,41.6,95,80,62,30.23,30.11,11,1,11,0.00
2013-1-9,52.3,47.6,43.9,49.8,42.4,35.9,93,83,66,30.14,29.98,15,1,18,0.00
2013-1-10,51.9,44.7,39.5,37.4,35.1,32.2,84,70,48,30.18,30.06,13,2,13,0.00
2013-1-11,52.9,44.5,40.0,40.8,36.0,32.1,92,73,61,30.24,30.12,11,2,12,0.00
2013-1-12,50.8,43.9,36.9,37.5,29.9,22.8,89,60,34,30.24,30.13,12,1,13,0.00
2013-1-13,51.1,42.3,34.2,32.9,24.2,15.1,71,50,29,30.26,30.17,14,1,18,0.00
2013-1-14,52.1,43.5,36.5,28.8,20.5,15.1,61,40,28,30.40,30.21,14,2,19,0.00
2013-1-15,52.8,44.2,36.7,31.4,27.8,23.4,73,53,36,30.47,30.38,13,1,14,0.00
2013-1-16,58.1,46.7,37.4,38.5,31.8,24.4,83,59,36,30.43,30.24,16,2,20,0.00
2013-1-17,63.9,54.5,46.5,41.0,30.4,22.9,68,41,28,30.25,30.12,22,2,22,0.00
2013-1-18,64.1,55.5,48.1,37.9,31.4,22.3,64,42,27,30.21,30.11,19,3,23,0.00
2013-1-19,62.2,54.5,41.2,36.6,29.8,22.6,71,40,26,30.23,30.13,21,3,21,0.00
2013-1-20,64.0,54.3,42.3,36.3,29.3,23.3,76,40,27,30.21,30.10,19,2,20,0.00
2013-1-21,64.7,54.0,43.9,39.3,33.7,25.4,62,47,34,30.16,30.06,16,3,18,0.00
2013-1-22,63.5,54.9,48.4,44.4,40.8,36.6,75,59,46,30.09,29.98,16,2,17,0.00
2013-1-23,55.2,52.2,49.6,51.4,47.0,42.4,95,83,69,30.07,29.93,16,1,19,0.26
2013-1-24,59.5,54.1,50.1,52.5,50.2,47.8,95,87,76,30.17,30.04,14,2,18,0.26
2013-1-25,65.8,57.5,52.0,55.8,52.4,49.8,95,84,66,30.17,30.02,9,1,10,0.00
2013-1-26,58.2,52.1,46.5,50.4,44.5,37.8,95,77,49,30.07,29.97,15,2,21,0.00
2013-1-27,56.7,48.0,42.3,41.0,38.0,29.7,82,70,38,30.16,30.05,13,1,13,0.00
2013-1-28,59.7,49.0,42.7,44.2,40.2,36.6,87,72,48,30.28,30.15,13,2,14,0.00
2013-1-29,59.6,50.9,44.3,44.5,41.6,38.6,83,71,50,30.35,30.25,9,1,12,0.00
2013-1-30,64.4,53.5,45.4,47.8,44.2,40.8,89,72,48,30.33,30.24,10,1,10,0.00
2013-1-31,65.7,54.7,45.7,48.1,44.6,40.8,84,70,51,30.27,30.15,11,2,13,0.00
2013-2-1,65.0,56.6,49.3,47.6,45.3,42.2,89,67,51,30.20,30.09,15,2,17,0.00
2013-2-2,59.6,50.3,46.1,50.1,46.9,43.8,96,89,70,30.29,30.19,9,1,12,0.00
2013-2-3,58.6,50.3,44.3,47.4,44.4,40.9,92,81,63,30.25,30.12,8,1,9,0.00
2013-2-4,57.3,49.4,46.8,50.1,46.8,45.2,96,91,76,30.17,30.05,8,1,11,0.00
2013-2-5,57.9,50.2,46.6,48.3,44.8,42.1,92,82,70,30.14,30.06,11,1,12,0.00
2013-2-6,58.4,49.6,43.6,46.1,42.1,39.6,89,76,56,30.19,30.10,12,1,12,0.00
2013-2-7,55.6,48.7,44.5,47.3,42.6,37.1,93,80,50,30.16,29.97,14,2,14,0.01
2013-2-8,55.4,47.0,40.9,43.5,40.3,36.6,95,79,53,30.01,29.92,11,1,12,0.07
2013-2-9,59.7,49.2,42.0,39.5,33.9,25.8,76,58,28,30.07,29.98,8,1,10,0.00
2013-2-10,61.6,49.6,40.0,43.8,38.2,32.2,85,66,44,30.11,30.00,8,1,9,0.00
2013-2-11,49.4,48.5,47.9,46.8,46.3,45.8,93,92,91,30.22,30.20,7,1,8,0.00
2013-2-12,64.1,51.4,44.0,46.8,43.5,36.8,95,77,37,30.34,30.22,10,1,11,0.00
2013-2-13,59.2,49.4,44.8,48.9,45.6,41.9,96,88,67,30.33,30.20,12,1,14,0.00
2013-2-14,70.9,55.3,44.6,51.7,45.9,42.7,97,74,39,30.23,30.13,12,1,13,0.01
2013-2-15,71.3,62.6,50.3,44.5,39.2,35.4,73,43,35,30.25,30.18,21,3,21,0.00
2013-2-16,72.1,58.5,49.0,50.7,45.8,39.8,90,65,40,30.20,30.03,11,1,12,0.00
2013-2-17,60.8,51.7,46.3,48.7,46.0,44.1,94,82,57,30.04,29.95,10,2,11,0.01
2013-2-18,52.8,48.5,45.8,44.9,41.8,37.8,92,78,64,30.02,29.94,18,5,21,0.00
2013-2-19,48.4,45.2,41.3,44.5,39.3,34.9,92,80,63,29.96,29.73,16,2,19,0.07
2013-2-20,59.8,47.7,39.5,41.8,37.6,33.9,83,69,45,30.05,29.84,10,2,11,0.07
2013-2-21,62.1,49.8,41.1,39.9,36.7,28.9,85,64,33,30.16,30.03,14,2,15,0.00
2013-2-22,59.3,50.3,43.0,46.1,42.7,37.6,87,76,51,30.25,30.15,14,2,16,0.00
2013-2-23,59.2,51.3,45.7,47.3,39.6,32.4,92,66,38,30.25,30.14,15,2,16,0.00
2013-2-24,63.1,51.7,43.3,44.6,34.6,25.3,89,56,25,30.25,30.15,14,2,17,0.00
2013-2-25,62.9,51.9,45.2,48.0,44.4,40.7,92,77,54,30.26,30.15,10,1,10,0.00
2013-2-26,67.7,53.2,43.6,45.0,36.1,20.7,79,56,19,30.21,30.12,12,2,13,0.00
2013-2-27,64.4,52.8,43.8,47.1,43.5,36.5,88,72,48,30.35,30.19,10,1,12,0.00
2013-2-28,63.0,54.3,48.3,53.2,49.2,45.0,93,84,66,30.44,30.35,12,1,13,0.00
2013-3-1,74.2,58.5,47.3,54.9,49.6,45.9,96,75,40,30.42,30.21,8,1,10,0.01
2013-3-2,70.0,56.8,50.5,54.8,50.2,46.5,92,80,58,30.22,30.05,12,1,15,0.00
2013-3-3,59.9,52.1,48.7,51.6,48.6,45.5,94,88,73,30.09,30.03,20,4,21,0.00
2013-3-4,55.3,49.1,44.6,47.2,44.8,41.4,93,86,71,30.14,30.04,12,2,14,0.00
2013-3-5,56.7,49.6,43.0,47.2,43.1,40.2,91,79,63,30.06,29.81,28,5,28,0.21
2013-3-6,54.8,50.5,44.2,48.3,44.4,41.4,94,80,64,30.06,29.82,25,5,29,0.34
2013-3-7,57.2,49.7,44.0,46.6,42.9,38.1,93,79,52,29.98,29.84,12,1,14,0.01
2013-3-8,60.9,50.8,45.2,45.9,42.1,39.3,92,73,47,30.03,29.82,15,2,16,0.01
2013-3-9,65.8,53.3,42.7,50.2,43.3,39.4,89,71,43,30.29,30.03,10,1,13,0.00
2013-3-10,65.3,54.1,45.0,50.3,45.7,41.0,92,75,45,30.33,30.23,12,1,12,0.00
2013-3-11,69.5,53.9,43.6,50.7,47.3,41.7,95,81,48,30.25,30.09,13,1,16,0.01
2013-3-12,67.2,54.7,48.4,54.5,50.0,46.9,96,85,62,30.15,30.05,10,1,10,0.00
2013-3-13,79.0,58.4,46.0,57.2,50.8,44.9,97,79,40,30.15,30.04,10,1,11,0.00
2013-3-14,60.7,53.6,48.8,52.9,49.7,46.5,97,87,74,30.16,30.07,12,2,12,0.00
2013-3-15,65.3,54.9,48.6,52.2,49.2,46.4,94,82,55,30.12,30.02,12,1,12,0.00
2013-3-16,67.4,55.6,48.4,52.5,48.5,44.1,96,79,44,30.11,30.00,14,2,14,0.01
2013-3-17,65.9,55.5,47.4,48.3,44.4,40.0,85,68,42,30.14,30.03,11,2,11,0.01
2013-3-18,61.4,52.5,47.3,49.7,46.2,42.1,90,80,59,30.12,30.02,17,2,18,0.00
2013-3-19,62.6,53.2,47.8,49.4,46.6,41.5,92,80,46,30.13,30.04,10,1,15,0.14
2013-3-20,58.5,53.1,49.1,53.9,50.5,46.4,95,91,73,30.12,30.05,14,2,16,0.03
2013-3-21,63.1,52.8,43.5,49.5,43.9,40.6,91,73,48,30.12,30.00,11,1,12,0.03
2013-3-22,69.0,55.4,45.0,42.6,37.9,28.3,83,56,24,30.11,30.01,10,3,12,0.00
2013-3-23,68.3,55.6,46.3,45.2,38.5,27.6,82,56,23,30.12,30.03,10,2,14,0.00
2013-3-24,63.1,52.6,46.6,49.1,46.3,43.4,92,80,52,30.08,29.96,14,2,15,0.00
2013-3-25,57.4,50.5,46.5,47.3,45.1,43.0,91,82,67,30.02,29.92,18,4,18,0.00
2013-3-26,60.1,52.3,46.0,50.4,46.0,42.8,90,80,68,29.99,29.92,12,2,15,0.00
2013-3-27,59.9,53.8,49.1,53.6,50.1,45.9,96,88,77,30.01,29.93,17,2,17,0.00
2013-3-28,66.6,57.6,53.0,55.5,52.9,49.9,97,85,66,30.07,29.99,11,1,11,0.00
2013-3-29,75.8,57.9,48.5,56.6,51.3,47.1,97,81,46,30.07,29.99,15,2,16,0.00
2013-3-30,64.8,56.0,51.8,54.1,51.8,50.0,96,87,62,30.06,29.96,16,3,18,0.04
2013-3-31,65.0,57.3,53.4,56.5,53.3,51.6,95,87,63,30.05,29.96,12,2,14,0.12
2013-4-1,63.7,57.0,52.1,55.8,52.4,48.3,97,86,67,30.14,30.03,13,1,13,0.47
2013-4-2,63.0,54.5,49.8,54.4,50.7,47.8,95,88,73,30.18,30.07,13,2,16,0.00
2013-4-3,72.7,55.4,50.4,57.6,51.1,48.6,95,87,53,30.12,29.98,17,2,17,0.00
2013-4-4,60.8,54.9,50.3,57.6,53.4,48.7,97,95,87,30.11,29.97,22,4,22,0.03
2013-4-5,61.8,56.7,53.6,55.4,53.2,50.8,98,89,71,30.17,30.10,15,3,16,0.04
2013-4-6,60.9,55.8,52.9,55.8,53.0,50.1,96,91,82,30.18,30.12,12,2,14,0.00
2013-4-7,61.9,55.6,52.0,55.9,51.1,46.9,95,85,69,30.16,29.83,24,4,24,0.03
2013-4-8,69.5,55.7,47.5,48.5,40.4,25.3,87,59,20,30.01,29.79,21,4,23,0.04
2013-4-9,78.1,62.7,50.2,46.1,40.1,28.1,76,49,17,30.08,29.99,24,4,24,0.00
2013-4-10,78.8,66.4,56.2,55.8,49.6,44.4,84,56,35,30.16,30.02,12,3,14,0.00
2013-4-11,70.8,58.7,50.1,51.9,49.0,45.8,87,71,46,30.04,29.82,13,2,14,0.00
2013-4-12,64.8,55.4,49.3,52.1,48.6,46.0,92,79,60,29.90,29.81,15,2,15,0.00
2013-4-13,68.0,56.3,49.0,51.4,45.9,41.1,90,70,43,29.89,29.80,14,3,16,0.00
2013-4-14,67.7,55.1,47.0,47.9,41.4,32.3,85,62,38,29.92,29.83,17,2,19,0.00
2013-4-15,59.3,51.0,44.9,47.5,40.3,34.1,90,69,44,29.95,29.84,22,3,27,0.00
2013-4-16,68.4,55.1,44.5,43.4,36.0,28.2,71,52,24,30.14,29.94,15,2,16,0.00